Location: Paimpol
(48.7798°N, 3.0488°W)
Time: 08:47:40
(UTC+02:00)

ISS - Pass Details

Date: 01 July 2021
Orbit: 419 x 421 km, 51.6° (Epoch: 31 July)

Event Time Altitude Azimuth Distance (km) Brightness Sun altitude
Exits shadow 04:15:00 16° 161° (SSE) 1,208 -1.8 -13.4°
Maximum altitude 04:16:01 17° 138° (SE) 1,129 -1.8 -13.3°
Drops below altitude 10° 04:18:19 10° 95° (E) 1,502 -0.6 -13.1°
Sets 04:20:54 0° 75° (ENE) 2,369 0.8 -12.9°
